This is the latest recevied weather packets stored in our database for station/object DC1MAK-13. If no packets are shown the sender has not sent any weather packets the latest 10 day(s).
| Time | Temp. | Humidity | Pressure | Rain* | Wind** | Luminosity | Snow |
|---|---|---|---|---|---|---|---|
| 1787822176 | 26.11° C | 63% | 985.7 hPa | - | - | - | - |
| 1787822170 | 26.11° C | 63% | 985.7 hPa | - | - | - | - |
| 1787821872 | 25.56° C | 65% | 985.7 hPa | - | - | - | - |
| 1787821867 | 25.56° C | 65% | 985.7 hPa | - | - | - | - |
| 1787821563 | 25.56° C | 65% | 985.7 hPa | - | - | - | - |
| 1787821267 | 25.56° C | 67% | 985.8 hPa | - | - | - | - |
| 1787821260 | 25.56° C | 67% | 985.8 hPa | - | - | - | - |
| 1787820967 | 25.56° C | 68% | 985.9 hPa | - | - | - | - |
| 1787820659 | 25° C | 68% | 985.9 hPa | - | - | - | - |
| 1787820653 | 25° C | 68% | 985.9 hPa | - | - | - | - |
| 1787820355 | 24.44° C | 70% | 985.9 hPa | - | - | - | - |
| 1787820052 | 24.44° C | 71% | 985.8 hPa | - | - | - | - |
| 1787819447 | 23.89° C | 76% | 985.6 hPa | - | - | - | - |
| 1787819147 | 23.33° C | 79% | 985.5 hPa | - | - | - | - |
| 1787819135 | 23.33° C | 79% | 985.5 hPa | - | - | - | - |
| 1787818838 | 22.78° C | 79% | 985.5 hPa | - | - | - | - |
| 1787818832 | 22.78° C | 79% | 985.5 hPa | - | - | - | - |
| 1787818534 | 22.78° C | 79% | 985.4 hPa | - | - | - | - |
| 1787818231 | 22.22° C | 81% | 985.6 hPa | - | - | - | - |
| 1787817627 | 21.67° C | 87% | 985.8 hPa | - | - | - | - |
| 1787817321 | 21.67° C | 88% | 985.9 hPa | - | - | - | - |
| 1787817017 | 21.11° C | 89% | 985.8 hPa | - | - | - | - |
| 1787816714 | 21.11° C | 90% | 986 hPa | - | - | - | - |
| 1787816410 | 20.56° C | 93% | 985.9 hPa | - | - | - | - |
| 1787815807 | 20° C | 96% | 985.9 hPa | - | - | - | - |
* Rain since midnight (hover to see other rain measurements)
** Current wind speed in m/s (hover to see current wind gust speed)